User: anonymous   Login
Location: Unspecified
(0.0000°N, 0.0000°E)
Time: 10:25:23
(UTC+00:00)
Language:

QB50P2 - Orbit

View from above orbital plane
View from above orbital plane
View from above satellite
View from above satellite

Ground track
Ground track

The orbit data is extracted from the following two-line orbital elements,

1 40032U 14033Y   21340.54733781  .00000708  00000-0  80915-4 0  9990
2 40032  97.9259 267.8276 0011225 336.8809  23.1901 14.89171094404905
Epoch (UTC): 06 December 2021 13:08:09
Eccentricity: 0.0011225
inclination: 97.9259°
perigee height: 592 km
apogee height: 608 km
right ascension of ascending node: 267.8276°
argument of perigee: 336.8809°
revolutions per day: 14.89171094
mean anomaly at epoch: 23.1901°
orbit number at epoch: 40490

The dashed part of the orbit path shows where the satellite is in the earth's shadow,  

DLR